EXS804 LEBL-EGCC

Flight info

Callsign EXS804
Flight time N/A
Altitude 34000
Route NATPI DCT EVNAM DCT TUPAR UN861 ANG DCT AKIKI UN867 AVANT UM184 HEMEL T420 ELVOS
Aircraft A21N/M-SDE2E3FGHIRWXY/LB1

Departure

Time 2026-05-04 18:26
Airport Josep Tarradellas Barcelona-El Prat Airport (LEBL)

Arrival

Time N/A
Airport Manchester Airport (EGCC)
Time Latitude Longitude Altitude Speed Heading
2026-05-04 17:53 41.30031 2.07443 26 ft 0 kts 15°
2026-05-04 18:04 41.30021 2.07439 27 ft 3 kts 14°
2026-05-04 18:05 41.30001 2.07434 29 ft 3 kts
2026-05-04 18:05 41.29981 2.07430 26 ft 3 kts
2026-05-04 18:05 41.29961 2.07430 25 ft 3 kts 356°
2026-05-04 18:05 41.29951 2.07431 23 ft 1 kts 355°
2026-05-04 18:06 41.29949 2.07431 23 ft 0 kts 355°
2026-05-04 18:08 41.29955 2.07431 51 ft 3 kts 354°
2026-05-04 18:08 41.29966 2.07456 23 ft 4 kts 86°
2026-05-04 18:09 41.29917 2.07543 22 ft 9 kts 155°
2026-05-04 18:09 41.29816 2.07435 22 ft 15 kts 243°
2026-05-04 18:10 41.29768 2.07302 21 ft 17 kts 247°
2026-05-04 18:10 41.29718 2.07153 22 ft 18 kts 244°
2026-05-04 18:10 41.29664 2.07000 24 ft 19 kts 244°
2026-05-04 18:10 41.29611 2.06840 21 ft 19 kts 246°
2026-05-04 18:11 41.29552 2.06676 21 ft 20 kts 243°
2026-05-04 18:11 41.29494 2.06507 21 ft 21 kts 246°
2026-05-04 18:11 41.29434 2.06331 21 ft 21 kts 247°
2026-05-04 18:11 41.29375 2.06159 21 ft 21 kts 235°
2026-05-04 18:12 41.29310 2.06136 23 ft 0 kts 153°
2026-05-04 18:12 41.29309 2.06137 23 ft 2 kts 153°
2026-05-04 18:12 41.29254 2.06177 21 ft 16 kts 155°
2026-05-04 18:13 41.29137 2.06245 20 ft 19 kts 156°
2026-05-04 18:13 41.29042 2.06360 23 ft 20 kts 108°
2026-05-04 18:13 41.29145 2.06756 21 ft 26 kts 66°
2026-05-04 18:14 41.29223 2.06983 23 ft 27 kts 66°
2026-05-04 18:14 41.29304 2.07218 22 ft 28 kts 66°
2026-05-04 18:14 41.29387 2.07459 22 ft 29 kts 65°
2026-05-04 18:15 41.29522 2.07860 22 ft 24 kts 65°
2026-05-04 18:15 41.29556 2.07953 23 ft 0 kts 65°
2026-05-04 18:18 41.29568 2.07986 22 ft 13 kts 64°
2026-05-04 18:18 41.29620 2.08141 22 ft 21 kts 68°
2026-05-04 18:19 41.29715 2.08418 23 ft 1 kts 71°
2026-05-04 18:19 41.29693 2.08472 21 ft 13 kts 152°
2026-05-04 18:19 41.29644 2.08502 22 ft 9 kts 156°
2026-05-04 18:20 41.29607 2.08416 25 ft 18 kts 249°
2026-05-04 18:20 41.29525 2.08280 22 ft 21 kts 163°
2026-05-04 18:20 41.29390 2.08366 24 ft 22 kts 156°
2026-05-04 18:20 41.29247 2.08451 29 ft 23 kts 155°
2026-05-04 18:21 41.29101 2.08543 22 ft 23 kts 160°
2026-05-04 18:21 41.28947 2.08631 23 ft 25 kts 154°
2026-05-04 18:21 41.28865 2.08736 22 ft 17 kts 78°
2026-05-04 18:21 41.28913 2.08885 22 ft 18 kts 64°
2026-05-04 18:22 41.28970 2.09042 23 ft 20 kts 67°
2026-05-04 18:22 41.29027 2.09212 22 ft 21 kts 66°
2026-05-04 18:22 41.29087 2.09392 22 ft 22 kts 66°
2026-05-04 18:22 41.29150 2.09581 24 ft 23 kts 66°
2026-05-04 18:23 41.29218 2.09779 22 ft 24 kts 63°
2026-05-04 18:23 41.29261 2.09894 22 ft 9 kts 63°
2026-05-04 18:23 41.29297 2.09970 22 ft 11 kts 61°
2026-05-04 18:23 41.29332 2.10066 22 ft 12 kts 69°
2026-05-04 18:24 41.29366 2.10179 21 ft 14 kts 68°
2026-05-04 18:24 41.29356 2.10259 20 ft 0 kts 160°
2026-05-04 18:25 41.29317 2.10278 18 ft 12 kts 158°
2026-05-04 18:25 41.29229 2.10310 20 ft 15 kts 204°
2026-05-04 18:25 41.29175 2.10187 22 ft 17 kts 247°
2026-05-04 18:25 41.29096 2.09962 26 ft 54 kts 245°
2026-05-04 18:26 41.28840 2.09215 25 ft 120 kts 246°
2026-05-04 18:26 41.28419 2.07992 125 ft 157 kts 245°
2026-05-04 18:26 41.27976 2.06696 680 ft 157 kts 242°
2026-05-04 18:26 41.27188 2.05689 1163 ft 169 kts 207°
2026-05-04 18:27 41.25969 2.05374 1579 ft 188 kts 187°
2026-05-04 18:27 41.24642 2.05107 2247 ft 198 kts 194°
2026-05-04 18:27 41.23204 2.04815 2786 ft 218 kts 190°
2026-05-04 18:27 41.21708 2.04507 3684 ft 218 kts 192°
2026-05-04 18:28 41.20219 2.04186 4651 ft 215 kts 193°
2026-05-04 18:28 41.18808 2.03605 5523 ft 212 kts 213°
2026-05-04 18:28 41.17715 2.02234 6097 ft 226 kts 235°
2026-05-04 18:28 41.16899 2.00394 6687 ft 238 kts 243°
2026-05-04 18:29 41.16031 1.98566 7648 ft 231 kts 231°
2026-05-04 18:29 41.14970 1.96972 8419 ft 238 kts 230°
2026-05-04 18:29 41.13905 1.95269 9236 ft 240 kts 232°
2026-05-04 18:29 41.13056 1.93357 10008 ft 245 kts 249°
2026-05-04 18:30 41.12061 1.88998 11544 ft 251 kts 251°
2026-05-04 18:30 41.11571 1.86762 12275 ft 255 kts 255°
2026-05-04 18:30 41.11453 1.84397 13030 ft 263 kts 275°
2026-05-04 18:31 41.11984 1.82038 13807 ft 271 kts 286°
2026-05-04 18:31 41.12707 1.79706 14476 ft 275 kts 287°
2026-05-04 18:31 41.13526 1.77393 15153 ft 281 kts 295°
2026-05-04 18:31 41.14801 1.75286 15522 ft 307 kts 314°
2026-05-04 18:32 41.16629 1.73668 15810 ft 331 kts 325°
2026-05-04 18:32 41.18705 1.72172 16086 ft 349 kts 326°
2026-05-04 18:32 41.20961 1.70746 16456 ft 366 kts 336°
2026-05-04 18:32 41.23499 1.70061 17074 ft 377 kts 348°
2026-05-04 18:33 41.26121 1.69636 17738 ft 379 kts 345°
2026-05-04 18:33 41.28706 1.68900 18368 ft 381 kts 342°
2026-05-04 18:33 41.31269 1.68078 18910 ft 384 kts 341°
2026-05-04 18:33 41.33890 1.67239 19478 ft 387 kts 341°
2026-05-04 18:34 41.36525 1.66407 20020 ft 391 kts 342°
2026-05-04 18:34 41.39183 1.65579 20568 ft 394 kts 342°
2026-05-04 18:34 41.41833 1.64758 21088 ft 397 kts 342°
2026-05-04 18:34 41.44533 1.63926 21603 ft 400 kts 342°
2026-05-04 18:35 41.47258 1.63086 22104 ft 403 kts 342°
2026-05-04 18:35 41.50001 1.62238 22602 ft 406 kts 342°
2026-05-04 18:35 41.52766 1.61380 23095 ft 409 kts 342°
2026-05-04 18:35 41.55542 1.60501 23582 ft 412 kts 341°
2026-05-04 18:36 41.58344 1.59615 23983 ft 414 kts 342°
2026-05-04 18:36 41.61161 1.58729 24388 ft 417 kts 342°
2026-05-04 18:36 41.63997 1.57832 24766 ft 420 kts 342°
2026-05-04 18:36 41.66857 1.56933 25145 ft 422 kts 342°
2026-05-04 18:37 41.69688 1.56047 25512 ft 425 kts 342°
2026-05-04 18:37 41.72615 1.55140 25884 ft 428 kts 342°
2026-05-04 18:37 41.75496 1.54252 26249 ft 430 kts 342°
2026-05-04 18:37 41.78419 1.53342 26611 ft 433 kts 342°
2026-05-04 18:38 41.81371 1.52426 26969 ft 436 kts 343°
2026-05-04 18:38 41.84339 1.51506 27285 ft 439 kts 343°
2026-05-04 18:38 41.87328 1.50577 27603 ft 441 kts 343°
2026-05-04 18:38 41.90296 1.49645 27930 ft 444 kts 343°
2026-05-04 18:39 41.93311 1.48696 28242 ft 446 kts 343°
2026-05-04 18:39 41.96349 1.47732 28556 ft 448 kts 343°
2026-05-04 18:39 41.99395 1.46762 28865 ft 451 kts 343°
2026-05-04 18:39 42.02475 1.45787 29117 ft 455 kts 343°
2026-05-04 18:40 42.05568 1.44816 29401 ft 457 kts 343°
2026-05-04 18:40 42.08681 1.43836 29693 ft 460 kts 343°
2026-05-04 18:40 42.11763 1.42863 29969 ft 462 kts 343°
2026-05-04 18:40 42.14905 1.41863 30226 ft 464 kts 343°
2026-05-04 18:41 42.18073 1.40868 30482 ft 466 kts 343°
2026-05-04 18:41 42.21246 1.39867 30698 ft 469 kts 343°
2026-05-04 18:41 42.24390 1.38881 30902 ft 471 kts 342°
2026-05-04 18:41 42.27596 1.37860 31136 ft 473 kts 342°
2026-05-04 18:42 42.30803 1.36828 31468 ft 472 kts 342°
2026-05-04 18:42 42.34001 1.35817 31800 ft 471 kts 342°
2026-05-04 18:42 42.37195 1.34812 32140 ft 469 kts 342°